Aitkin, MN

6:08 PM CDT on May 26, 2017 (GMT -0500)
Aitkin Municipal / Steve Kurtz Field

Weather History for KAIT - October, 2013

Change the Weather History Date:

Saturday, October 19, 2013

  Actual Average Record
Temperature  
Mean Temperature 38 °F -  
Max Temperature 48 °F 52 °F 80 °F (2000)
Min Temperature 28 °F 31 °F 12 °F (1972)
Degree Days  
Heating Degree Days 27    
Moisture  
Dew Point 30 °F    
Average Humidity 72    
Maximum Humidity 87    
Minimum Humidity 46    
Precipitation  
Precipitation 0.00 in - - ()
Sea Level Pressure  
Sea Level Pressure 29.70 in    
Wind  
Wind Speed 2 mph (NW)    
Max Wind Speed 9 mph    
Max Gust Speed 9 mph    
Visibility 10 miles    
Events      
Averages and records for this station are not official NWS values.
T = Trace of Precipitation, MM = Missing Value Source: NWS Daily Summary

Daily Weather History Graph

Daily Weather History Graph

Search for Another Location

Airport or City:

Trip Planner

Search our weather history database for the weather conditions in past years. The results will help you decide how hot, cold, wet, or windy it might be!

Date:

Astronomy

Oct. 19, 2013 Rise Set
Actual Time 7:38 AM CDT 6:20 PM CDT
Civil Twilight 7:07 AM CDT 6:50 PM CDT
Nautical Twilight 6:32 AM CDT 7:25 PM CDT
Astronomical Twilight 5:57 AM CDT 8:00 PM CDT
Moon 6:44 PM CDT (10/19) 8:20 AM CDT (10/19)
Length of Visible Light 11h 43m
Length of Day
10h 42m
Waxing Gibbous, 99% of the Moon is Illuminated
Oct 19
Waxing Gibbous
Oct 26
Last Quarter
Nov 3
New
Nov 9
First Quarter
Nov 17
Full

Hourly Weather History & Observations

Time (CDT) Temp. Windchill Dew Point Humidity Pressure Visibility Wind Dir Wind Speed Gust Speed Precip Events Conditions
12:13 AM 33.8 °F - 28.4 °F 81% 29.76 in 10.0 mi Calm Calm - N/A   Scattered Clouds
12:32 AM 33.8 °F - 28.4 °F 81% 29.75 in 10.0 mi Calm Calm - N/A   Scattered Clouds
12:53 AM 33.8 °F - 28.4 °F 81% 29.74 in 10.0 mi Calm Calm - N/A   Scattered Clouds
1:13 AM 33.8 °F - 28.4 °F 81% 29.74 in 10.0 mi Calm Calm - N/A   Scattered Clouds
1:33 AM 33.8 °F - 28.4 °F 81% 29.73 in 10.0 mi Calm Calm - N/A   Mostly Cloudy
1:52 AM 33.8 °F - 28.4 °F 81% 29.72 in 10.0 mi Calm Calm - N/A   Mostly Cloudy
2:13 AM 33.8 °F - 28.4 °F 81% 29.72 in 10.0 mi Calm Calm - N/A   Mostly Cloudy
2:33 AM 35.6 °F - 30.2 °F 81% 29.71 in 10.0 mi Calm Calm - N/A   Mostly Cloudy
2:53 AM 37.4 °F - 32.0 °F 81% 29.70 in 10.0 mi Calm Calm - N/A   Overcast
3:13 AM 39.2 °F - 33.8 °F 81% 29.69 in 10.0 mi Calm Calm - N/A   Overcast
3:32 AM 39.2 °F 37.0 °F 33.8 °F 81% 29.69 in 10.0 mi SW 3.5 mph - N/A   Overcast
3:53 AM 39.2 °F 37.0 °F 33.8 °F 81% 29.68 in 10.0 mi SW 3.5 mph - N/A   Overcast
4:13 AM 37.4 °F 34.9 °F 33.8 °F 87% 29.68 in 10.0 mi SW 3.5 mph - N/A   Scattered Clouds
4:32 AM 37.4 °F - 33.8 °F 87% 29.67 in 10.0 mi Calm Calm - N/A   Scattered Clouds
4:53 AM 37.4 °F - 32.0 °F 81% 29.66 in 10.0 mi Calm Calm - N/A   Scattered Clouds
5:13 AM 37.4 °F - 32.0 °F 81% 29.66 in 10.0 mi Calm Calm - N/A   Scattered Clouds
5:32 AM 37.4 °F - 33.8 °F 87% 29.66 in 10.0 mi Calm Calm - N/A   Mostly Cloudy
5:53 AM 39.2 °F - 33.8 °F 81% 29.66 in 10.0 mi Calm Calm - N/A   Overcast
6:13 AM 39.2 °F - 33.8 °F 81% 29.65 in 10.0 mi Calm Calm - N/A   Overcast
6:32 AM 39.2 °F - 33.8 °F 81% 29.65 in 10.0 mi Calm Calm - N/A   Overcast
6:53 AM 39.2 °F - 33.8 °F 81% 29.65 in 10.0 mi Calm Calm - N/A   Overcast
7:12 AM 39.2 °F 37.0 °F 33.8 °F 81% 29.65 in 10.0 mi WSW 3.5 mph - N/A   Overcast
7:33 AM 39.2 °F - 33.8 °F 81% 29.65 in 10.0 mi Calm Calm - N/A   Overcast
7:52 AM 37.4 °F - 33.8 °F 87% 29.65 in 10.0 mi Calm Calm - N/A   Overcast
8:13 AM 37.4 °F - 33.8 °F 87% 29.66 in 10.0 mi Calm Calm - N/A   Overcast
9:13 AM 41.0 °F 39.0 °F 33.8 °F 76% 29.66 in 10.0 mi WNW 3.5 mph - N/A   Scattered Clouds
9:32 AM 41.0 °F - 33.8 °F 76% 29.66 in 10.0 mi Calm Calm - N/A   Mostly Cloudy
9:53 AM 39.2 °F 35.9 °F 33.8 °F 81% 29.66 in 10.0 mi WNW 4.6 mph - N/A   Overcast
10:13 AM 39.2 °F 35.9 °F 33.8 °F 81% 29.67 in 10.0 mi WNW 4.6 mph - N/A   Mostly Cloudy
10:32 AM 42.8 °F 41.1 °F 35.6 °F 76% 29.66 in 10.0 mi WNW 3.5 mph - N/A   Mostly Cloudy
10:53 AM 42.8 °F 38.0 °F 33.8 °F 70% 29.66 in 10.0 mi NW 8.1 mph - N/A   Mostly Cloudy
11:13 AM 42.8 °F 40.1 °F 33.8 °F 70% 29.66 in 10.0 mi NW 4.6 mph - N/A   Overcast
11:32 AM 44.6 °F 41.4 °F 33.8 °F 66% 29.66 in 10.0 mi North 5.8 mph - N/A   Mostly Cloudy
11:53 AM 44.6 °F 40.7 °F 30.2 °F 57% 29.66 in 10.0 mi North 6.9 mph - N/A   Scattered Clouds
12:13 PM 44.6 °F - 28.4 °F 53% 29.66 in 10.0 mi Calm Calm - N/A   Scattered Clouds
12:33 PM 48.2 °F - 30.2 °F 50% 29.66 in 10.0 mi Calm Calm - N/A   Scattered Clouds
12:52 PM 46.4 °F 42.9 °F 28.4 °F 50% 29.66 in 10.0 mi NW 6.9 mph - N/A   Scattered Clouds
1:13 PM 46.4 °F 44.3 °F 30.2 °F 53% 29.66 in 10.0 mi NW 4.6 mph - N/A   Scattered Clouds
1:33 PM 48.2 °F - 30.2 °F 50% 29.66 in 10.0 mi WNW 5.8 mph - N/A   Mostly Cloudy
1:52 PM 46.4 °F 44.3 °F 28.4 °F 50% 29.66 in 10.0 mi NW 4.6 mph 9.2 mph N/A   Mostly Cloudy
2:13 PM 48.2 °F - 28.4 °F 46% 29.66 in 10.0 mi NW 3.5 mph - N/A   Mostly Cloudy
2:33 PM 46.4 °F 42.4 °F 28.4 °F 50% 29.67 in 10.0 mi NW 8.1 mph - N/A   Mostly Cloudy
2:52 PM 48.2 °F - 28.4 °F 46% 29.67 in 10.0 mi NW 5.8 mph - N/A   Mostly Cloudy
3:13 PM 48.2 °F - 28.4 °F 46% 29.68 in 10.0 mi West 3.5 mph - N/A   Overcast
3:33 PM 46.4 °F 43.5 °F 28.4 °F 50% 29.68 in 10.0 mi WNW 5.8 mph - N/A   Overcast
3:52 PM 46.4 °F 41.9 °F 30.2 °F 53% 29.69 in 10.0 mi NNW 9.2 mph - N/A   Overcast
4:13 PM 44.6 °F 42.2 °F 30.2 °F 57% 29.70 in 10.0 mi NW 4.6 mph - N/A   Scattered Clouds
4:33 PM 44.6 °F 42.2 °F 28.4 °F 53% 29.70 in 10.0 mi WNW 4.6 mph - N/A   Scattered Clouds
4:52 PM 48.2 °F - 28.4 °F 46% 29.70 in 10.0 mi NW 6.9 mph - N/A   Mostly Cloudy
5:13 PM 44.6 °F 40.7 °F 28.4 °F 53% 29.71 in 10.0 mi NNW 6.9 mph - N/A   Scattered Clouds
5:33 PM 44.6 °F 42.2 °F 28.4 °F 53% 29.71 in 10.0 mi NNW 4.6 mph - N/A   Clear
5:52 PM 42.8 °F 39.3 °F 30.2 °F 61% 29.72 in 10.0 mi NNW 5.8 mph - N/A   Clear
6:13 PM 41.0 °F 38.0 °F 30.2 °F 65% 29.72 in 10.0 mi NNW 4.6 mph - N/A   Clear
6:32 PM 39.2 °F 37.0 °F 30.2 °F 70% 29.72 in 10.0 mi NNW 3.5 mph - N/A   Clear
6:53 PM 37.4 °F 34.9 °F 28.4 °F 70% 29.73 in 10.0 mi NNW 3.5 mph - N/A   Clear
7:13 PM 35.6 °F - 28.4 °F 75% 29.74 in 10.0 mi Calm Calm - N/A   Clear
7:32 PM 32.0 °F - 26.6 °F 80% 29.74 in 10.0 mi Calm Calm - N/A   Clear
7:53 PM 30.2 °F - 24.8 °F 80% 29.74 in 10.0 mi Calm Calm - N/A   Clear
8:13 PM 30.2 °F - 24.8 °F 80% 29.74 in 10.0 mi Calm Calm - N/A   Clear
8:32 PM 28.4 °F - 24.8 °F 86% 29.74 in 10.0 mi Calm Calm - N/A   Clear
8:53 PM 30.2 °F - 26.6 °F 86% 29.74 in 10.0 mi Calm Calm - N/A   Clear
9:13 PM 30.2 °F - 24.8 °F 80% 29.74 in 10.0 mi Calm Calm - N/A   Clear
9:32 PM 30.2 °F - 24.8 °F 80% 29.75 in 10.0 mi Calm Calm - N/A   Clear
9:53 PM 28.4 °F - 23.0 °F 80% 29.75 in 10.0 mi Calm Calm - N/A   Clear
10:13 PM 28.4 °F - 24.8 °F 86% 29.75 in 10.0 mi Calm Calm - N/A   Clear
10:32 PM 30.2 °F - 24.8 °F 80% 29.75 in 7.0 mi Calm Calm - N/A   Clear
10:53 PM 28.4 °F - 24.8 °F 86% 29.75 in 10.0 mi Calm Calm - N/A   Scattered Clouds
11:12 PM 28.4 °F - 24.8 °F 86% 29.75 in 10.0 mi Calm Calm - N/A   Clear
11:33 PM 28.4 °F - 24.8 °F 86% 29.75 in 10.0 mi Calm Calm - N/A   Clear
11:52 PM 28.4 °F - 24.8 °F 86% 29.74 in 7.0 mi Calm Calm - N/A   Clear